Location: Cudham
(51.3000°N, 0.0667°E)
Time: 17:09:58
(UTC+00:00)

USA 229 DEB - Pass Details

Date: 19 April 2026
Orbit: 844 x 1364 km, 63.4° (Epoch: 10 January)

Event Time Altitude Azimuth Distance (km) Brightness Sun altitude
Rises 21:41:06 0° 302° (WNW) 3,776 7.8 -20.5°
Reaches altitude 10° 21:43:52 10° 311° (NW) 2,901 7.1 -20.8°
Maximum altitude 21:50:11 35° 17° (NNE) 1,780 5.2 -21.4°
Drops below altitude 10° 21:57:13 10° 81° (E) 3,241 6.0 -22.0°
Enters shadow 21:59:12 - 87° (E) 3,862 6.3 -22.1°
